Wind_Speed
70 73 75 77 79 80 80 82 84 85 82 77 75 72 67 62 59 55 50 46 43 38 33 29 27 26 27 29 31 33 35 38 42 47 53 59 65 73 80 84 85 85 86 85 84 85 84 80 79 82 87 90 90 89 87 85 83 82 81 79 78 77 76 74 73 75 72 68 68 68 63 59 59 59 59 57 57 58 58 58 56 55 54 54 54 53 53 53
71 74 77 79 81 81 82 84 86 86 81 77 75 70 65 61 57 52 49 45 42 36 31 26 23 21 19 21 24 26 28 32 36 41 46 52 58 66 73 76 78 79 79 77 77 80 78 74 75 79 83 87 87 87 87 86 83 81 80 79 77 75 73 70 69 68 66 63 64 65 62 59 56 54 53 54 55 55 54 53 51 52 53 52 52 51 51 51
72 76 78 81 82 83 83 85 87 86 80 76 74 68 63 60 55 51 48 44 41 36 29 25 22 17 13 14 15 18 21 25 29 34 40 45 52 58 64 68 71 72 72 71 73 75 71 68 70 74 80 83 84 85 86 84 82 80 79 78 76 74 72 72 70 64 59 58 59 58 56 55 52 49 48 51 51 50 51 51 50 50 51 51 51 50 50 49
74 77 80 82 83 84 84 86 88 86 79 76 72 66 62 58 54 51 48 44 40 35 29 25 19 14 9 7 8 11 14 18 23 28 34 39 45 51 56 60 63 64 65 66 68 66 62 63 65 71 77 79 80 80 81 81 81 80 79 78 78 77 73 69 66 59 57 61 62 59 54 51 52 51 49 49 49 50 51 51 49 49 50 50 50 49 49 48
74 78 80 83 84 84 85 86 89 85 78 75 70 65 61 56 53 51 47 43 39 34 29 24 17 11 7 3 4 8 12 17 21 26 30 35 40 45 49 53 55 57 58 60 61 59 58 59 62 66 71 73 75 76 76 77 79 79 80 79 77 75 70 65 64 60 58 58 57 56 52 48 49 51 50 47 47 50 51 50 49 48 49 49 48 48 47 47
75 78 81 84 85 85 85 87 89 84 77 74 68 63 59 55 53 50 45 41 38 33 29 22 15 9 5 2 3 8 13 17 22 25 27 30 34 38 42 45 48 50 52 55 55 53 53 55 58 63 66 67 68 69 71 72 75 76 76 78 76 71 61 55 57 61 62 61 57 54 52 50 50 52 52 50 50 51 52 51 50 48 48 47 47 46 46 45
76 79 81 84 86 86 86 87 89 84 76 72 66 61 57 54 52 48 44 40 36 33 28 21 13 8 5 5 6 9 12 15 19 23 25 27 31 34 37 39 43 45 47 49 48 47 49 52 55 58 60 60 60 62 62 64 68 70 70 71 73 72 62 53 52 56 58 59 60 59 56 55 54 54 54 54 54 54 52 50 49 48 47 46 45 44 44 43
76 79 82 85 86 86 86 88 89 83 75 70 64 59 55 53 51 46 42 38 35 31 26 19 12 8 6 7 8 10 14 15 18 23 26 28 30 32 35 37 39 41 42 42 42 43 47 50 51 53 54 54 56 57 56 59 62 64 64 60 61 64 59 55 57 59 58 55 54 56 56 56 56 56 55 53 52 51 50 49 48 47 46 45 44 43 43 43
77 79 82 85 87 87 86 87 88 82 73 68 62 57 54 53 49 44 41 37 33 29 24 18 12 9 8 9 11 13 16 18 20 24 28 30 33 35 37 38 38 38 39 41 43 45 46 47 49 51 52 51 51 52 52 54 56 60 60 53 51 53 53 55 56 56 56 54 52 52 53 53 52 52 52 51 50 49 49 48 47 46 45 44 43 43 42 42
77 79 81 85 86 86 86 87 88 81 72 66 60 55 53 51 48 43 39 35 31 28 23 18 12 10 10 11 14 17 19 21 24 27 30 33 35 37 38 39 40 41 42 44 46 46 47 48 48 48 49 49 49 49 49 49 50 54 54 49 46 46 50 53 53 53 53 53 52 52 55 55 54 53 52 51 49 49 48 47 46 45 44 43 43 43 43 42
77 78 81 85 86 86 86 86 87 80 71 64 57 53 52 50 46 42 38 34 30 27 22 17 13 11 12 14 17 21 23 24 27 29 32 34 36 38 39 40 42 44 45 46 47 47 48 48 48 47 47 48 46 44 42 42 44 45 42 42 42 42 45 43 42 46 50 51 51 51 52 53 54 53 51 50 49 48 48 47 46 45 45 44 44 44 43 43
77 78 80 84 86 86 85 86 87 80 70 63 56 52 50 48 44 40 37 33 29 25 21 17 14 13 14 17 21 24 25 27 30 32 33 35 37 39 41 42 45 47 48 48 50 49 49 48 47 44 43 44 42 40 38 36 38 39 37 37 37 38 40 37 34 36 42 47 50 51 50 49 50 50 49 48 47 47 47 47 47 46 46 45 45 44 43 43
76 77 80 84 85 85 85 85 86 79 69 61 54 50 49 45 42 39 36 33 29 25 21 18 15 14 17 20 24 26 27 29 33 35 36 37 39 40 42 43 46 49 50 49 49 48 47 47 45 43 44 46 42 40 38 35 36 38 37 36 35 36 38 37 36 36 39 43 47 50 49 48 47 48 48 47 47 47 47 47 47 46 46 46 44 44 43 43
76 77 79 83 85 84 84 84 85 79 67 59 52 48 47 42 40 37 34 32 29 25 22 19 17 17 21 24 27 30 30 32 35 38 39 41 42 43 44 45 46 48 49 50 51 50 48 46 44 44 50 50 45 41 36 34 34 33 33 32 30 29 30 33 34 36 40 43 45 47 46 45 46 48 47 47 47 46 45 45 45 45 45 44 44 43 43 43
75 77 79 82 84 84 83 83 83 78 66 58 49 45 43 40 37 35 33 31 28 26 23 21 20 21 25 28 30 33 34 35 38 40 42 44 45 46 47 46 47 47 48 49 51 50 47 44 41 45 51 48 43 38 33 31 27 24 25 26 23 20 21 24 28 31 34 37 40 42 42 43 44 46 45 46 47 46 45 46 46 45 45 45 44 44 44 44
74 76 78 82 83 83 82 81 82 77 65 56 47 41 39 36 34 32 30 29 27 26 23 22 23 24 27 31 33 36 38 39 41 43 44 47 49 49 50 50 49 49 50 51 52 50 46 43 41 45 49 46 41 36 32 29 23 19 21 21 20 19 18 19 22 25 27 31 35 38 38 38 40 42 43 44 46 46 46 47 48 47 46 46 45 45 44 44
73 75 77 81 83 82 81 80 80 76 64 54 45 38 36 33 29 28 27 27 25 24 24 24 25 25 28 32 34 37 40 41 44 46 48 48 50 50 50 50 51 51 52 52 53 50 47 46 45 46 46 44 40 35 33 31 23 19 21 21 23 23 20 18 19 22 25 29 30 31 31 33 35 39 41 41 42 44 45 46 46 46 46 45 45 44 44 44
72 74 76 79 81 81 80 79 79 75 64 53 44 36 33 31 26 24 23 23 21 21 24 25 25 25 28 31 32 35 39 41 43 46 48 50 50 50 50 50 50 50 49 50 51 49 47 48 48 48 45 42 39 35 36 34 27 23 22 24 27 27 24 20 19 20 24 26 26 27 28 28 29 32 35 36 38 41 42 43 44 44 44 44 43 43 43 43
71 73 75 78 80 79 78 78 77 74 64 53 44 36 31 29 26 24 22 21 21 20 23 23 24 24 27 30 32 34 36 39 42 44 46 49 52 52 51 50 48 47 47 48 49 49 47 47 48 49 47 42 39 37 38 36 33 32 29 27 26 24 21 18 18 18 20 22 23 22 23 24 26 27 31 34 37 38 39 40 41 42 43 43 42 42 42 42
71 72 74 77 78 77 77 76 75 72 62 51 44 35 30 29 26 23 21 19 20 20 21 22 23 24 26 30 33 34 36 39 41 44 45 47 51 52 50 48 46 45 46 46 47 47 46 45 48 50 48 45 42 42 43 41 39 39 33 27 23 18 15 15 17 20 21 21 21 19 20 23 26 28 32 35 37 37 38 38 40 41 41 42 42 42 42 42
70 72 73 75 76 75 74 74 74 71 61 50 43 34 30 29 25 22 19 16 16 16 19 22 23 23 26 30 33 35 38 41 43 45 48 49 51 50 49 47 44 44 44 43 43 44 43 44 47 49 48 46 45 44 43 38 34 32 27 23 21 18 17 17 15 19 22 23 23 22 23 24 26 30 33 34 34 35 36 37 38 38 37 38 39 40 41 40
69 71 72 74 74 73 72 72 72 69 59 49 42 34 29 26 24 22 18 15 15 16 19 21 23 24 27 31 34 37 40 44 48 50 52 53 52 50 49 46 43 41 41 41 41 41 42 41 42 45 45 45 43 38 32 28 25 24 23 21 21 22 24 21 15 18 23 24 24 25 25 26 29 31 29 29 30 31 31 32 33 33 33 35 36 37 38 38
68 70 71 72 72 70 70 70 70 67 56 47 41 33 27 24 22 20 17 15 15 18 21 23 25 28 32 36 38 40 43 47 52 54 54 52 51 50 48 46 42 38 38 40 39 39 38 39 42 44 41 38 37 32 25 24 25 24 24 24 24 26 26 22 20 21 22 22 22 22 22 24 27 27 25 27 29 29 28 28 30 30 31 33 33 35 35 34
67 68 69 70 69 68 67 68 68 64 53 44 39 32 26 22 20 18 15 15 18 21 24 26 30 33 37 40 42 45 47 49 51 52 51 50 49 48 44 43 41 37 36 37 36 36 36 38 43 42 37 34 35 34 28 25 26 26 27 29 30 30 28 25 23 21 19 21 22 20 19 21 23 23 24 25 25 27 27 28 29 28 28 29 30 31 30 29
66 67 68 67 67 65 65 66 65 60 50 40 36 31 25 20 16 14 13 18 24 28 31 32 34 37 40 42 44 47 48 47 46 45 45 46 46 45 42 41 38 34 33 31 31 35 35 36 41 39 37 37 35 35 32 27 30 32 30 31 31 31 29 26 21 18 20 22 21 19 20 22 22 22 23 23 23 25 26 28 28 26 26 27 28 26 25 25
65 65 65 64 64 63 63 64 62 57 46 36 32 29 23 17 13 13 17 25 31 35 35 34 35 37 41 43 44 45 45 44 43 43 43 43 42 42 40 37 35 32 29 30 31 32 32 35 39 38 38 37 34 34 35 32 33 34 32 31 29 26 24 21 19 20 22 23 24 23 23 24 24 23 23 22 24 25 26 27 27 26 27 26 26 24 22 22
64 64 63 62 61 60 61 62 60 53 41 31 29 26 19 13 12 16 24 30 33 35 33 30 31 34 38 42 43 42 42 42 43 43 41 37 35 35 34 33 33 31 31 33 31 28 30 34 36 36 35 34 33 34 36 35 34 32 30 29 26 21 17 17 19 22 25 27 29 28 26 26 24 22 21 23 25 26 25 26 26 27 29 26 25 23 20 20
63 62 61 60 58 58 59 60 58 50 37 28 26 24 17 13 16 21 28 30 29 29 27 25 27 31 36 39 40 41 40 40 40 38 35 33 31 31 31 31 31 32 36 38 32 26 28 29 30 31 30 29 29 30 33 34 33 28 24 23 24 23 20 17 18 22 26 28 28 27 25 25 22 20 20 22 24 24 23 24 25 27 28 26 25 24 21 21
62 61 59 57 56 57 58 58 55 46 34 25 22 21 16 12 17 24 28 27 25 23 20 20 24 31 35 36 37 38 38 36 35 34 33 32 32 32 33 34 34 35 40 41 31 24 25 27 27 27 27 26 26 26 27 29 28 24 22 23 26 27 23 20 22 25 27 26 24 23 23 21 20 22 24 24 23 23 21 23 25 24 24 24 24 24 22 20
61 60 58 55 55 55 56 56 52 42 31 22 19 19 14 9 15 24 26 24 23 17 16 21 26 30 32 32 34 36 35 34 34 34 35 35 36 37 37 37 37 36 37 38 32 24 24 26 27 26 25 24 24 25 25 25 27 26 26 25 27 28 24 23 26 28 29 25 21 20 20 19 19 22 24 25 25 24 21 21 23 21 20 22 23 22 20 18
60 59 57 54 53 54 55 55 49 38 27 17 16 16 10 7 13 20 22 22 20 15 17 22 26 28 28 30 32 34 35 35 37 38 40 40 39 40 39 35 34 33 31 31 29 25 23 25 28 28 26 23 24 27 27 27 31 32 30 26 26 27 27 25 24 25 26 24 19 18 17 17 20 21 22 24 26 26 22 21 23 22 21 24 25 23 21 19
59 58 56 53 53 53 54 53 46 34 24 14 12 12 6 8 12 17 21 21 16 16 20 21 22 23 24 28 31 33 35 37 40 42 41 39 37 38 38 34 31 30 29 28 28 27 24 25 28 29 29 27 26 26 27 29 32 32 29 25 23 25 27 26 23 22 22 21 18 18 18 17 21 22 21 23 24 23 20 19 22 22 21 22 24 24 24 23
59 57 56 53 52 52 52 51 44 30 20 12 7 8 6 11 18 20 22 20 17 20 20 15 17 20 22 27 28 30 35 38 42 42 36 34 34 35 35 33 29 28 30 31 32 32 29 28 29 30 30 30 27 23 24 28 29 29 27 23 19 20 23 24 23 20 20 20 19 19 19 19 19 20 19 21 22 19 16 16 21 23 22 23 24 25 26 25
58 57 55 53 52 51 50 48 41 27 16 9 4 5 7 15 24 22 21 19 19 20 15 10 13 18 21 26 26 27 33 35 37 37 34 31 30 31 33 33 31 28 29 33 35 36 34 32 32 32 31 32 29 25 25 26 26 26 26 23 18 17 20 23 22 19 18 19 19 18 18 19 19 18 19 20 20 17 16 18 21 23 24 24 24 24 24 23
58 56 54 53 51 50 49 45 37 24 14 6 1 2 4 15 24 23 22 20 17 16 13 11 11 13 17 24 26 25 28 31 32 33 33 28 22 25 30 32 33 30 28 32 35 36 36 34 34 33 32 32 30 27 26 26 26 26 26 25 21 19 21 23 22 18 17 19 20 20 19 19 21 20 20 20 18 17 18 20 21 24 25 23 21 21 21 21
57 56 54 52 50 49 47 43 34 21 12 6 2 2 4 16 25 24 23 22 19 16 15 13 11 8 12 20 23 20 21 27 30 32 29 21 17 20 26 29 31 28 26 29 32 33 35 35 33 32 32 31 29 26 25 25 26 25 25 25 22 20 20 21 21 18 17 19 21 22 21 21 22 21 19 18 17 18 19 20 21 25 27 24 21 20 20 20
56 55 53 51 49 48 45 40 32 19 12 8 5 5 8 18 25 24 23 23 22 19 17 15 12 9 9 15 19 19 18 23 30 30 25 19 18 19 21 25 28 25 23 24 26 29 29 30 30 30 31 31 29 28 26 25 23 20 20 21 19 18 19 19 21 20 18 19 21 22 23 23 23 22 19 16 16 17 18 21 22 24 25 23 21 20 19 19
56 54 52 50 48 46 42 37 29 17 12 9 7 7 11 18 22 24 24 22 23 23 18 15 13 11 9 11 14 16 17 22 29 28 20 18 21 19 17 19 23 25 23 20 21 24 24 24 25 26 28 29 28 28 28 25 22 19 18 20 18 17 17 18 20 21 22 23 23 23 24 25 26 25 21 19 19 19 19 19 20 22 24 24 23 23 22 20
55 53 51 50 47 43 39 35 27 16 14 11 9 10 14 19 20 26 29 25 23 22 17 14 14 11 9 9 8 10 13 18 27 28 22 20 21 19 16 15 17 23 25 21 19 20 23 23 21 22 25 24 22 24 24 23 25 25 23 20 19 18 18 20 20 19 20 21 22 23 22 24 27 26 24 22 21 21 19 17 17 19 22 23 23 25 25 23
54 52 50 48 44 40 37 32 25 16 15 14 11 11 16 21 20 25 32 29 23 18 13 12 13 12 11 10 6 7 9 12 19 23 21 21 19 16 17 18 17 18 23 25 21 18 22 24 21 22 24 22 19 20 22 22 24 27 27 25 23 21 21 23 21 18 17 18 19 21 20 23 27 27 25 23 21 20 18 16 17 19 21 21 20 22 23 24
52 51 49 45 40 38 34 29 22 16 16 17 14 12 16 22 23 23 30 31 23 17 15 14 14 15 15 12 9 9 10 9 12 15 13 15 15 13 15 19 20 18 20 25 26 22 22 23 22 22 25 24 21 20 22 24 24 24 26 27 26 25 24 25 24 20 19 20 20 19 19 21 23 24 23 23 22 21 20 20 20 22 24 24 22 22 23 23
51 50 47 43 38 34 31 25 20 16 18 20 17 15 16 21 24 23 28 31 24 21 20 18 18 19 16 13 11 12 12 12 13 13 11 12 12 12 11 13 16 18 19 23 27 26 23 22 20 23 26 27 24 21 20 21 23 25 26 26 25 26 27 28 26 23 22 23 22 19 19 21 22 22 22 23 24 23 22 24 25 25 27 26 24 24 24 24
51 49 45 40 36 31 27 22 18 17 21 22 18 16 16 18 22 24 27 30 26 24 24 23 23 21 15 13 12 12 12 12 13 14 14 14 13 13 13 14 16 19 19 21 26 27 25 22 20 22 26 26 24 25 22 21 22 25 28 29 27 25 26 24 23 22 22 24 25 22 22 22 22 22 24 25 25 25 24 25 25 25 25 24 24 26 28 28
50 47 42 38 34 28 23 19 17 18 22 22 19 17 17 18 21 24 29 28 24 24 24 22 23 20 14 12 12 13 14 14 14 14 14 15 16 16 17 17 18 20 20 23 28 28 25 23 21 22 25 24 23 26 27 26 26 26 28 29 27 24 24 22 21 22 23 24 25 25 23 23 22 21 22 23 24 24 23 21 19 19 19 20 21 24 27 28
49 45 40 37 33 25 20 17 16 19 22 23 22 19 18 20 21 25 31 28 22 22 23 21 21 19 14 13 13 15 16 16 16 16 15 14 15 17 20 20 20 20 21 25 30 30 26 24 24 24 26 26 25 26 28 26 25 24 25 27 25 22 22 24 25 25 24 24 25 26 25 25 24 22 20 20 21 23 24 21 17 15 15 17 17 20 25 28
47 42 38 34 28 22 18 16 16 19 24 25 25 21 19 21 22 24 31 30 23 22 24 23 25 25 20 18 19 21 22 21 20 20 18 15 15 17 18 19 20 20 21 26 31 32 29 25 25 27 29 28 25 25 27 26 22 22 23 24 27 26 23 25 27 27 27 26 27 28 27 26 25 23 21 21 20 21 23 23 18 15 15 17 17 21 26 27
45 40 36 28 22 19 17 15 15 19 26 28 26 23 21 22 23 24 29 30 27 25 25 25 29 31 28 25 24 25 27 26 23 23 22 20 17 16 14 13 13 14 18 23 29 32 30 25 23 26 29 29 25 23 25 25 22 20 19 19 24 27 25 26 28 28 28 28 28 28 27 26 25 23 22 21 20 20 21 22 21 21 21 20 19 21 23 24
43 39 33 25 19 17 14 14 17 21 26 27 26 24 22 22 24 26 27 27 27 27 26 25 28 31 29 28 27 26 27 27 23 22 24 22 19 17 15 11 9 9 12 15 20 25 26 22 21 23 26 26 24 23 24 22 20 19 16 16 20 24 24 24 25 26 26 26 27 27 27 26 25 24 23 22 22 23 23 24 25 26 25 22 20 22 23 25
41 37 31 23 18 17 16 16 19 22 26 26 25 24 22 22 24 26 26 26 26 25 25 25 26 28 28 28 28 27 27 28 26 22 21 21 21 20 18 15 12 10 10 11 14 17 18 18 20 21 23 25 24 23 23 22 20 20 19 21 24 26 25 24 24 24 25 25 25 25 26 27 27 26 25 25 25 26 26 26 26 26 25 24 23 25 26 26
39 35 28 21 19 19 18 16 18 23 27 27 26 25 24 22 23 25 26 27 27 25 24 27 28 28 30 31 30 27 26 28 28 25 22 22 23 22 19 17 16 14 13 13 14 15 15 16 19 19 21 23 23 22 23 23 23 23 24 26 27 27 26 26 27 26 25 25 25 24 24 26 27 27 26 26 28 29 28 27 25 25 27 29 28 26 24 24
37 32 23 19 21 21 18 19 22 25 27 28 27 27 25 22 22 24 26 28 29 25 24 28 30 29 30 31 29 27 27 26 26 25 24 24 23 21 19 19 18 18 17 16 16 17 16 17 19 20 21 21 21 21 22 23 23 24 25 25 26 26 26 26 27 26 23 23 25 25 24 25 26 26 25 26 27 28 29 28 26 24 25 28 30 27 23 23
35 28 21 19 22 22 22 26 28 27 27 28 28 28 26 22 22 25 27 28 30 28 26 27 29 28 26 27 28 29 28 27 26 26 25 25 24 21 20 21 19 18 18 18 18 19 19 17 19 21 22 22 22 21 22 23 22 21 22 22 21 22 24 22 20 19 18 18 20 21 20 20 22 23 24 24 24 26 28 28 27 26 24 24 26 25 25 27
Wind_Direction
330 330 331 332 334 336 337 339 339 338 336 334 334 333 332 331 330 328 326 326 325 322 316 308 297 285 272 262 255 248 242 236 231 228 227 226 226 225 226 227 228 229 230 231 231 232 232 231 230 229 230 231 232 233 235 235 234 234 236 237 238 239 241 243 245 247 247 249 251 250 250 251 256 261 262 263 264 266 266 268 270 271 272 273 275 276 277 279
332 332 333 335 337 339 341 342 342 341 338 337 337 336 335 334 333 332 333 333 332 330 327 322 312 296 279 264 253 245 238 232 227 224 222 221 221 222 223 224 226 227 228 229 229 230 231 229 228 227 228 229 230 231 233 234 233 233 234 236 237 238 240 241 243 246 248 251 252 251 251 251 255 261 262 263 266 268 266 267 271 272 274 275 276 277 278 280
334 335 336 338 339 341 343 344 344 343 340 339 339 338 338 337 337 338 338 339 339 337 337 335 326 312 294 272 255 242 233 226 222 219 218 218 217 218 220 221 223 224 226 227 227 228 228 227 226 225 226 227 227 229 231 232 233 232 233 234 235 237 239 241 243 246 247 247 248 250 252 251 253 255 260 264 266 266 266 268 272 273 274 276 276 277 279 280
335 336 338 339 341 343 345 346 346 344 342 341 341 341 340 340 342 343 342 343 344 344 345 343 336 330 315 285 252 230 219 214 213 212 212 213 214 214 216 218 220 221 223 224 225 226 226 225 224 223 224 224 225 226 229 231 232 231 231 231 234 236 238 242 245 245 244 244 246 248 251 252 251 252 258 264 263 262 265 268 271 273 274 276 277 278 279 280
337 338 339 341 343 345 346 347 347 345 343 343 344 343 343 344 347 347 346 347 348 350 351 348 346 348 344 315 221 201 195 195 198 201 203 205 207 209 210 213 215 218 220 222 223 223 221 220 219 220 221 222 222 223 225 228 229 230 230 230 232 236 239 242 244 243 241 243 246 247 247 248 249 250 255 259 259 261 265 270 272 273 275 276 277 279 280 281
338 339 340 342 344 346 347 348 349 347 345 345 346 345 346 349 351 349 349 350 351 355 355 350 352 4 19 64 152 174 182 184 187 188 191 196 199 202 204 207 210 213 216 218 219 218 216 214 214 215 216 217 219 220 222 225 227 229 230 230 232 234 235 238 242 243 243 243 245 246 245 246 250 252 252 254 259 264 267 271 273 274 275 276 277 279 280 282
339 340 341 343 345 347 348 350 350 348 347 347 347 347 349 352 353 352 353 354 355 358 357 352 357 14 49 96 130 157 166 173 180 177 176 184 188 191 195 198 203 206 209 211 211 210 208 206 207 209 211 213 213 215 218 220 224 227 229 231 233 233 233 236 241 243 244 245 247 247 247 248 251 253 254 256 260 265 268 270 272 274 275 276 277 279 281 282
340 341 342 344 346 347 349 350 351 350 348 349 349 349 352 355 355 356 357 358 359 1 359 356 1 22 57 97 119 144 149 154 167 167 165 171 174 178 182 187 193 196 198 199 198 199 200 198 197 199 204 206 206 208 211 215 220 224 228 231 234 235 235 236 241 244 246 249 249 247 248 250 251 253 256 259 261 265 267 270 272 274 275 276 277 279 280 281
341 341 343 345 346 348 350 351 352 351 350 351 351 351 355 357 357 359 1 2 3 4 3 1 12 36 64 93 112 128 134 143 154 157 158 161 164 167 171 176 179 180 181 182 184 187 189 191 191 194 196 196 199 201 204 211 217 222 225 227 232 235 233 235 241 246 249 251 251 250 250 252 253 254 257 260 263 266 268 270 273 274 275 276 277 279 280 281
341 342 343 345 347 349 350 352 353 353 352 352 351 353 358 359 359 3 5 7 8 9 9 11 25 51 76 98 115 122 126 137 146 151 154 156 158 160 163 165 166 168 169 171 176 177 178 181 184 190 192 190 192 196 201 210 217 223 226 226 231 236 235 238 244 247 250 253 254 253 253 254 255 256 259 261 264 267 268 270 272 274 275 276 278 279 280 281
341 342 343 346 347 349 350 352 354 354 353 354 353 355 359 0 2 6 10 12 14 16 18 24 39 62 85 103 114 118 123 133 140 145 149 151 153 155 156 158 160 160 160 165 169 171 173 174 177 185 189 186 187 192 199 209 217 222 224 225 230 235 236 240 244 246 249 253 255 254 254 255 255 257 260 262 265 267 269 270 272 273 275 277 278 279 281 282
341 342 344 346 348 349 351 352 355 355 354 354 354 357 1 1 4 9 14 18 21 23 26 35 52 72 91 105 112 116 123 131 134 138 142 144 147 150 151 153 155 154 156 164 167 168 170 168 173 181 180 176 180 190 196 203 214 215 215 221 227 230 231 234 240 244 247 250 252 253 255 257 256 258 260 262 265 267 269 271 272 274 275 276 278 280 282 283
341 342 344 346 348 350 351 353 355 356 356 355 356 360 1 2 6 12 17 22 25 28 33 43 57 77 95 105 110 114 121 128 131 133 136 139 141 144 145 148 151 151 154 161 163 164 165 166 170 173 170 169 178 191 194 198 206 208 211 219 226 230 230 232 240 245 246 247 251 254 257 259 259 259 261 263 266 268 270 272 273 274 275 277 279 281 282 284
341 342 343 346 348 350 351 353 355 356 357 356 357 1 2 1 7 14 20 25 29 33 39 50 62 80 96 103 106 111 118 123 127 130 132 135 136 139 141 144 146 149 154 157 158 159 160 164 170 171 168 169 177 186 190 196 202 204 210 219 227 233 234 235 240 244 248 250 254 257 259 260 261 261 262 264 266 269 271 273 275 275 276 278 280 282 283 284
341 342 343 345 348 349 351 353 355 357 358 357 357 3 1 359 6 14 22 29 33 38 45 57 69 84 96 102 105 110 115 119 123 126 128 131 133 135 137 140 144 147 152 155 155 154 157 163 169 170 169 170 175 181 186 194 199 201 208 218 225 231 235 236 238 244 252 254 255 259 262 263 263 263 264 265 267 269 271 272 274 276 278 280 281 282 283 284
341 342 343 345 347 349 350 352 355 357 358 358 357 2 1 357 4 15 25 33 38 44 51 62 73 84 95 101 107 111 115 119 122 124 126 129 131 134 136 139 143 146 149 152 151 151 155 161 166 167 168 171 174 176 180 182 183 190 201 207 212 222 229 231 236 243 251 256 259 261 263 265 266 266 266 266 267 269 271 272 275 277 279 280 281 282 283 284
340 342 343 345 347 348 350 352 355 357 358 358 357 2 2 357 5 17 25 31 38 49 56 67 78 85 94 102 109 113 117 121 123 125 127 129 132 135 138 140 143 146 150 151 150 152 156 159 162 163 165 169 170 171 173 173 177 192 205 207 210 217 216 220 238 247 252 259 263 262 263 267 268 267 267 267 270 271 273 275 277 279 280 281 282 282 283 284
341 342 343 345 347 348 349 351 354 356 358 358 356 1 3 358 6 18 23 24 27 47 60 67 78 86 95 102 108 113 118 121 123 126 128 130 133 136 139 141 144 146 149 150 150 153 158 161 161 159 161 164 166 169 171 175 184 194 203 205 206 211 212 225 250 259 258 256 259 263 265 267 268 268 269 272 274 275 275 277 278 280 281 281 282 283 283 284
341 342 343 345 346 347 349 351 354 356 357 358 355 357 2 1 8 18 24 26 31 52 68 74 81 88 96 103 108 113 117 121 123 126 128 131 135 138 140 140 142 145 147 150 152 156 161 163 161 159 161 165 169 171 174 183 190 193 196 198 203 214 225 238 252 258 260 253 254 263 264 266 272 274 275 277 279 279 278 279 280 281 281 281 282 282 282 283
341 342 343 345 346 347 348 350 353 355 356 357 355 355 1 5 13 22 26 33 42 58 75 84 90 95 100 105 110 114 118 121 124 126 127 131 134 135 136 138 142 146 148 150 154 158 162 163 162 162 165 168 172 174 178 185 190 193 199 206 212 223 234 236 241 251 255 250 249 256 262 268 271 272 275 277 279 279 279 280 282 281 280 279 279 280 281 282
341 342 343 344 346 346 347 349 352 354 356 356 356 356 1 7 13 22 29 38 52 67 79 89 98 103 106 110 115 118 121 123 124 124 125 127 129 132 135 140 145 149 149 150 153 157 161 163 165 167 169 173 178 181 185 190 195 201 207 216 216 213 222 228 240 255 254 253 258 264 267 267 268 272 276 276 276 277 277 278 278 278 278 279 278 278 280 282
341 342 343 344 345 345 346 349 351 354 356 356 357 359 4 7 8 16 28 42 60 77 86 95 104 109 112 115 118 121 122 123 124 124 124 127 131 137 141 144 147 149 149 150 154 157 158 162 168 172 173 177 182 184 186 188 193 201 206 212 211 210 220 221 222 244 253 257 265 267 264 263 270 277 275 273 274 274 274 275 276 279 281 282 280 279 280 282
340 341 342 343 344 345 346 348 350 353 355 357 358 2 7 7 8 17 32 49 66 86 96 104 110 113 115 116 118 119 120 122 125 127 129 133 140 144 145 145 145 147 149 152 157 159 158 162 170 174 174 177 180 179 181 183 185 194 203 207 209 213 217 212 215 237 253 258 262 265 266 267 272 274 269 271 272 271 272 275 278 282 284 285 283 281 281 283
340 341 342 343 344 344 346 347 350 352 354 358 360 4 8 7 15 26 43 67 84 96 103 107 111 114 117 119 120 119 120 123 127 132 136 141 145 145 145 144 143 148 153 155 157 156 157 165 171 174 174 173 175 178 182 187 188 194 202 205 208 212 214 216 227 242 250 256 263 269 269 266 266 266 266 266 265 268 273 278 282 283 283 287 287 286 285 285
340 341 342 343 343 343 345 347 349 351 354 360 2 7 9 11 30 44 59 85 96 100 103 105 109 114 118 121 123 123 124 126 131 137 142 146 147 147 146 145 147 152 154 153 154 155 159 167 173 173 171 171 177 185 193 197 195 197 202 202 203 209 217 227 237 243 247 253 259 263 264 262 259 260 265 266 267 273 276 279 283 284 286 290 292 293 291 288
340 341 342 342 342 343 344 346 348 350 355 1 4 10 14 23 51 70 81 97 103 103 105 110 117 123 125 127 128 129 131 134 139 143 147 150 150 148 146 145 148 149 149 151 155 159 162 167 172 174 174 178 186 195 201 202 199 200 202 204 208 217 227 236 238 238 244 248 250 253 257 257 256 259 266 271 274 276 275 276 278 282 289 293 291 294 293 288
340 341 342 342 341 342 344 345 347 350 355 1 7 17 28 47 75 90 98 107 112 113 118 128 134 135 133 135 135 135 139 143 146 149 150 150 146 142 141 143 145 145 147 147 148 156 163 167 173 178 183 190 196 199 202 204 204 206 210 215 217 213 214 228 237 239 243 247 251 257 256 253 259 267 270 271 273 277 277 275 276 282 289 290 288 290 287 282
340 340 341 341 340 341 343 344 345 348 353 3 14 25 44 81 96 102 108 113 118 125 134 140 141 139 137 139 138 139 143 146 147 148 145 141 136 135 137 140 142 146 146 138 133 144 157 164 172 178 183 187 191 194 197 201 204 205 211 213 208 202 203 218 234 242 248 250 252 257 256 257 265 268 266 267 273 278 278 275 276 282 286 285 285 285 281 276
339 340 340 340 339 341 342 343 344 346 352 6 21 31 50 90 108 113 117 119 126 136 141 139 139 140 141 143 141 141 143 143 142 140 137 135 133 134 134 135 139 145 143 135 131 140 149 156 164 168 170 171 174 178 182 188 191 195 202 202 202 207 213 222 230 238 247 250 252 257 257 261 266 264 264 267 271 276 276 274 276 279 282 283 283 282 277 273
338 339 339 339 339 340 341 341 342 343 349 7 27 35 49 83 119 126 125 127 137 142 138 138 141 143 146 145 143 142 140 138 137 135 134 135 134 133 133 135 139 144 145 140 138 144 150 157 164 167 170 172 175 179 182 187 189 194 202 202 204 209 215 226 233 238 244 247 253 261 261 264 268 266 265 266 270 276 277 274 274 275 277 280 280 279 275 271
337 338 338 337 337 339 339 340 340 340 345 5 32 42 63 113 136 138 134 133 139 138 137 144 147 148 150 146 142 142 139 136 135 134 135 135 136 139 140 142 146 152 156 153 152 156 158 163 167 170 175 178 179 182 185 189 191 197 203 206 213 219 225 232 236 239 244 248 255 260 260 266 270 264 261 265 273 277 273 269 272 275 278 278 276 275 274 274
336 336 336 335 336 337 338 338 337 337 340 357 34 49 83 158 161 148 138 134 135 141 149 154 155 154 151 147 144 143 141 140 139 137 137 139 143 148 148 148 153 160 169 172 171 169 169 172 173 175 181 185 182 180 184 190 194 201 206 212 223 231 232 233 237 241 244 247 252 255 252 257 266 266 263 268 275 274 265 263 274 279 277 275 276 275 277 280
334 334 333 333 334 335 335 336 335 332 334 346 30 53 81 162 167 152 140 139 144 157 164 161 159 159 150 144 144 146 148 149 146 144 144 146 151 156 157 158 161 165 173 180 180 177 176 177 180 184 187 187 187 186 188 194 199 204 208 213 224 235 234 231 235 244 247 245 248 255 251 247 257 266 267 268 272 268 255 254 267 272 267 268 275 278 280 282
331 332 331 330 331 332 333 333 331 327 324 335 22 47 82 148 163 155 145 151 158 168 179 175 164 162 153 145 144 151 157 157 154 152 151 151 156 166 170 169 169 170 176 182 183 182 180 181 185 189 189 188 191 197 198 199 205 213 218 218 220 228 231 229 231 241 249 246 245 250 252 250 255 264 266 265 264 259 249 249 258 265 265 268 276 280 280 279
328 329 329 328 329 330 331 330 328 321 310 315 35 30 88 148 162 156 151 162 166 166 177 185 177 166 157 154 154 160 162 160 160 158 155 153 160 174 180 178 174 174 181 185 186 186 185 187 190 192 194 192 195 203 206 208 216 223 223 219 216 221 230 230 228 237 251 252 246 243 247 254 255 259 266 267 261 250 246 253 264 271 270 269 274 276 272 271
326 327 327 326 327 327 329 328 324 313 294 283 213 203 142 155 162 158 161 170 163 159 174 189 194 184 165 160 164 171 166 162 165 163 160 161 167 179 187 187 180 179 185 188 190 193 194 196 197 197 200 200 203 207 207 213 219 217 212 212 217 226 232 231 228 236 252 256 251 245 245 251 251 253 262 264 257 247 244 255 269 276 275 273 273 270 265 266
324 325 325 324 324 325 326 326 320 304 278 262 225 205 163 163 168 165 168 172 167 173 188 193 200 205 187 171 174 179 168 162 166 165 167 179 182 183 190 192 188 189 194 194 196 199 200 203 205 205 206 208 213 215 213 211 205 197 204 216 225 232 232 232 234 241 249 251 253 251 245 246 248 250 254 255 253 248 246 252 260 268 274 274 270 264 262 264
322 322 322 322 322 323 325 324 316 293 261 243 220 202 168 163 172 173 172 174 179 190 198 195 197 202 189 175 174 174 169 166 167 168 174 188 189 187 188 192 196 200 202 199 198 201 201 204 209 211 210 208 212 212 210 208 200 198 213 221 223 226 231 239 245 250 253 253 257 258 250 245 247 248 249 252 253 250 249 254 260 265 270 270 266 262 260 258
320 320 320 320 321 323 324 320 311 285 250 231 210 197 174 164 174 179 177 178 187 198 205 199 191 180 163 161 154 155 164 170 174 178 185 188 191 196 197 198 202 202 202 196 190 197 201 206 213 211 202 199 205 207 204 203 204 210 220 224 221 222 230 240 245 249 255 257 260 260 252 247 246 246 245 247 252 254 252 257 265 270 273 273 269 263 259 254
319 319 318 319 320 321 320 315 304 275 241 224 206 194 181 174 179 184 183 184 186 191 201 199 184 166 161 170 170 158 157 162 171 181 191 192 197 210 215 218 217 208 206 202 194 196 201 204 212 207 196 195 206 212 210 209 209 215 225 233 231 226 228 236 240 244 247 250 255 255 250 248 250 250 247 243 246 249 244 246 259 268 272 275 275 269 264 259
318 318 317 318 319 319 316 310 296 264 230 216 205 193 184 183 187 191 191 190 185 177 187 196 185 177 181 186 187 177 169 163 167 177 194 201 209 227 228 224 222 218 217 213 208 208 204 201 205 206 203 205 210 211 211 215 219 222 229 236 236 236 240 245 249 247 238 238 250 257 254 251 251 251 249 243 242 243 241 243 252 259 264 270 277 274 268 266
317 317 317 317 316 316 314 304 286 253 222 213 207 195 190 192 191 190 192 194 189 179 184 192 187 188 195 190 184 185 177 171 181 196 210 211 217 235 231 216 216 222 227 221 215 213 207 204 209 210 212 215 219 217 214 217 222 224 227 232 237 242 248 252 254 250 241 240 248 255 257 256 253 250 246 242 241 242 244 245 247 254 265 272 273 268 266 267
317 317 316 315 314 314 311 296 273 244 220 214 210 198 197 200 190 181 186 192 190 184 183 185 188 194 200 191 190 201 196 190 203 216 218 215 221 232 227 218 221 229 231 222 215 209 203 207 214 212 212 219 224 225 227 228 226 224 227 232 238 247 251 251 251 249 246 242 241 244 251 256 258 253 246 243 242 241 246 252 255 259 266 268 265 265 269 269
317 317 315 315 314 311 305 287 263 238 219 212 210 203 199 199 187 179 184 187 187 187 184 183 190 196 201 204 207 215 217 218 225 228 224 222 230 236 233 229 228 230 230 219 208 202 202 213 220 213 210 216 222 225 229 235 234 231 232 233 239 249 251 244 241 244 247 246 242 244 249 252 254 254 247 244 246 245 245 252 262 263 261 262 263 267 271 271
317 316 315 315 314 307 294 276 249 227 215 207 206 206 201 196 187 181 185 187 186 187 188 192 198 197 199 213 221 218 218 223 226 230 231 227 232 240 240 237 233 229 225 214 204 202 208 220 224 218 212 215 222 226 227 233 239 240 239 234 231 238 246 243 240 241 243 245 243 243 246 249 251 254 251 247 249 249 243 244 255 263 265 268 265 258 262 267
316 315 314 314 311 301 285 266 241 220 211 205 203 205 202 197 189 182 186 191 194 194 195 199 200 197 199 213 221 218 220 225 226 228 230 226 228 235 234 235 238 234 222 213 209 211 217 224 226 223 220 220 228 233 229 230 237 244 246 238 227 228 239 243 242 243 245 246 244 242 245 248 250 252 253 251 250 249 244 243 246 252 260 267 263 253 257 264
315 314 313 311 303 294 281 261 240 220 210 206 201 201 202 198 192 184 183 189 195 199 202 204 202 200 204 213 220 219 221 227 228 225 224 224 226 228 223 226 237 234 223 218 215 216 222 228 227 223 221 223 232 237 233 231 235 239 241 238 230 231 239 245 247 249 249 249 248 247 248 249 249 248 249 250 251 250 250 246 242 245 252 259 264 260 258 262
314 312 310 304 291 282 270 246 231 218 212 209 203 200 203 199 194 190 187 188 191 197 202 205 204 203 207 215 220 222 222 222 222 219 218 220 226 229 225 226 234 230 224 225 222 221 223 227 226 224 221 223 231 236 231 230 237 238 233 231 231 231 238 247 251 251 251 251 250 251 252 250 248 245 243 246 250 250 251 249 245 248 253 256 263 266 263 265
313 310 306 300 282 261 246 234 224 213 209 208 203 201 203 202 198 196 195 191 190 195 198 196 197 200 204 210 215 219 222 220 219 219 218 219 225 228 226 222 222 227 231 233 230 226 223 222 226 229 226 224 229 231 225 223 231 235 231 231 233 233 236 243 249 252 253 252 250 251 253 252 251 248 244 245 250 251 251 250 248 247 248 249 256 264 269 271
310 307 301 292 275 256 241 227 217 212 209 204 199 200 203 202 199 199 200 198 195 195 195 193 195 198 200 204 208 215 219 219 220 223 222 222 227 229 228 223 220 224 232 235 234 231 229 229 231 231 228 225 227 228 224 222 225 228 229 232 238 244 247 250 254 258 257 254 250 248 250 251 251 252 249 247 251 255 257 257 255 250 246 246 251 259 267 271
308 304 293 273 261 252 231 208 204 210 213 206 199 198 200 199 197 199 202 204 202 199 196 198 202 202 200 204 210 217 220 219 222 227 226 225 228 230 229 226 221 221 226 232 235 231 232 238 238 235 233 229 225 226 228 229 230 231 233 238 244 251 254 254 257 261 261 257 251 247 249 250 251 254 254 253 255 258 259 259 260 259 254 251 251 254 259 265
305 298 285 259 246 239 222 209 205 206 210 211 205 199 198 199 200 199 200 203 205 204 201 202 205 204 205 211 217 221 222 220 222 229 230 229 230 230 228 225 220 221 228 238 240 233 230 237 241 238 236 231 225 224 227 230 233 236 240 242 244 247 248 250 255 260 261 257 249 245 247 250 252 254 254 252 254 258 257 254 255 259 260 256 252 251 254 258
Height
10712 10704 10696 10687 10678 10668 10657 10646 10633 10620 10608 10596 10585 10574 10563 10553 10543 10533 10523 10515 10507 10499 10493 10488 10485 10482 10480 10480 10481 10483 10486 10490 10495 10500 10508 10516 10526 10536 10544 10554 10567 10578 10587 10597 10611 10622 10631 10646 10661 10670 10673 10678 10686 10694 10702 10709 10719 10726 10730 10735 10738 10740 10742 10745 10748 10751 10763 10771 10773 10776 10782 10783 10785 10786 10787 10790 10792 10794 10796 10798 10800 10800 10800 10801 10802 10802 10802 10803
10706 10698 10690 10681 10672 10662 10651 10639 10627 10614 10602 10590 10579 10568 10557 10547 10537 10528 10518 10510 10502 10495 10489 10484 10481 10479 10477 10477 10478 10480 10483 10486 10491 10497 10503 10511 10520 10529 10538 10550 10562 10572 10582 10594 10608 10617 10627 10643 10656 10664 10668 10672 10682 10690 10697 10704 10714 10723 10728 10732 10733 10735 10739 10742 10745 10752 10763 10768 10768 10772 10777 10780 10782 10783 10784 10786 10787 10789 10792 10794 10796 10796 10796 10797 10798 10798 10798 10799
10701 10693 10684 10675 10666 10656 10645 10633 10622 10609 10597 10585 10574 10563 10553 10543 10533 10523 10515 10507 10499 10492 10486 10482 10479 10477 10475 10475 10476 10478 10481 10485 10490 10495 10501 10508 10516 10525 10535 10547 10557 10568 10579 10591 10603 10612 10626 10640 10652 10659 10661 10666 10678 10686 10692 10700 10710 10719 10724 10727 10727 10731 10735 10738 10744 10754 10763 10763 10764 10769 10773 10777 10779 10780 10782 10783 10784 10786 10788 10791 10793 10792 10792 10793 10794 10794 10795 10795
10696 10688 10679 10670 10661 10651 10641 10629 10617 10605 10593 10581 10570 10559 10550 10540 10530 10521 10512 10505 10498 10491 10485 10482 10479 10477 10475 10474 10475 10477 10480 10484 10489 10494 10500 10507 10515 10523 10534 10544 10555 10566 10577 10589 10600 10612 10626 10638 10647 10652 10654 10662 10674 10682 10690 10698 10706 10713 10717 10720 10722 10727 10733 10738 10744 10754 10760 10758 10761 10767 10771 10775 10776 10778 10780 10780 10782 10784 10785 10788 10790 10790 10789 10790 10790 10790 10791 10791
10692 10683 10675 10666 10657 10647 10637 10626 10614 10601 10589 10578 10567 10557 10547 10538 10528 10519 10511 10504 10497 10491 10486 10483 10480 10477 10475 10475 10475 10477 10479 10482 10487 10492 10499 10505 10513 10522 10532 10542 10553 10564 10576 10588 10599 10611 10623 10633 10641 10646 10651 10661 10671 10681 10688 10694 10700 10705 10709 10715 10720 10726 10734 10740 10743 10751 10754 10754 10760 10765 10768 10772 10774 10776 10778 10778 10779 10781 10783 10785 10786 10786 10786 10787 10786 10786 10787 10787
10688 10680 10671 10662 10654 10644 10633 10622 10610 10598 10586 10575 10565 10555 10546 10536 10527 10519 10511 10504 10498 10492 10488 10485 10482 10479 10477 10476 10477 10478 10480 10483 10487 10492 10499 10506 10514 10523 10532 10542 10553 10564 10576 10587 10598 10610 10620 10628 10635 10642 10649 10659 10670 10680 10686 10691 10696 10699 10705 10713 10720 10726 10734 10738 10740 10746 10750 10753 10759 10762 10766 10770 10771 10773 10774 10775 10777 10778 10780 10782 10783 10783 10784 10784 10783 10783 10783 10783
10684 10676 10668 10659 10650 10640 10630 10619 10608 10596 10584 10573 10563 10554 10546 10536 10528 10520 10512 10505 10499 10494 10490 10488 10485 10482 10480 10479 10479 10480 10482 10486 10490 10494 10500 10508 10515 10524 10533 10543 10553 10563 10575 10585 10596 10608 10617 10624 10632 10640 10649 10659 10669 10678 10685 10689 10692 10697 10705 10714 10718 10724 10733 10737 10738 10742 10746 10752 10757 10760 10764 10767 10769 10770 10771 10773 10774 10776 10777 10778 10779 10780 10780 10781 10780 10780 10780 10780
10681 10673 10665 10656 10647 10637 10627 10617 10606 10594 10583 10573 10563 10555 10546 10537 10529 10521 10514 10507 10502 10497 10494 10491 10488 10486 10484 10483 10483 10484 10486 10490 10495 10498 10503 10510 10517 10525 10534 10543 10552 10563 10575 10586 10597 10606 10614 10622 10631 10640 10649 10659 10667 10675 10682 10686 10690 10698 10707 10716 10719 10725 10734 10737 10736 10739 10745 10751 10755 10757 10761 10764 10766 10767 10768 10770 10772 10773 10774 10775 10776 10776 10777 10777 10777 10777 10777 10776
10678 10670 10662 10654 10645 10635 10625 10616 10605 10594 10583 10573 10564 10556 10547 10539 10531 10524 10516 10510 10506 10502 10498 10495 10492 10490 10489 10488 10488 10489 10491 10494 10498 10503 10507 10513 10520 10527 10535 10544 10554 10566 10577 10586 10595 10604 10614 10623 10632 10640 10649 10659 10666 10674 10680 10684 10690 10697 10707 10716 10720 10726 10733 10733 10735 10740 10744 10748 10752 10755 10757 10759 10762 10764 10765 10768 10769 10771 10771 10772 10772 10773 10773 10774 10773 10773 10773 10773
10676 10668 10660 10652 10643 10634 10624 10615 10605 10594 10583 10574 10565 10558 10549 10542 10534 10527 10520 10514 10510 10506 10503 10500 10497 10495 10493 10493 10492 10493 10495 10498 10502 10507 10511 10517 10523 10530 10538 10547 10557 10567 10576 10586 10595 10605 10614 10623 10632 10641 10650 10659 10667 10676 10682 10686 10692 10700 10709 10717 10720 10726 10729 10731 10736 10739 10742 10745 10749 10751 10753 10756 10758 10760 10763 10765 10767 10767 10768 10768 10769 10770 10770 10770 10770 10770 10770 10770
10674 10666 10659 10651 10642 10633 10624 10615 10605 10594 10584 10576 10568 10560 10552 10545 10538 10531 10524 10519 10514 10511 10507 10505 10502 10500 10498 10497 10497 10497 10499 10503 10506 10511 10516 10521 10528 10535 10542 10551 10560 10568 10578 10589 10598 10607 10615 10623 10634 10643 10652 10661 10671 10679 10685 10691 10697 10704 10712 10716 10721 10725 10727 10731 10736 10738 10741 10743 10744 10747 10749 10752 10755 10758 10760 10763 10763 10764 10764 10765 10766 10767 10766 10767 10767 10766 10767 10766
10672 10665 10657 10650 10641 10632 10623 10614 10605 10596 10586 10578 10570 10563 10556 10549 10543 10536 10529 10524 10519 10516 10512 10510 10507 10505 10503 10502 10502 10502 10505 10508 10511 10516 10521 10527 10534 10540 10547 10555 10563 10570 10581 10591 10599 10607 10616 10625 10635 10646 10655 10665 10675 10681 10686 10692 10698 10704 10711 10716 10721 10724 10726 10731 10734 10737 10739 10740 10741 10744 10747 10750 10753 10755 10757 10759 10760 10760 10761 10762 10762 10763 10763 10763 10763 10763 10763 10763
10671 10663 10656 10648 10640 10632 10623 10615 10606 10597 10588 10580 10573 10567 10560 10554 10547 10540 10534 10529 10525 10522 10518 10515 10513 10511 10509 10508 10507 10509 10511 10513 10516 10521 10527 10532 10539 10547 10553 10560 10567 10575 10585 10595 10603 10612 10620 10628 10638 10648 10657 10666 10675 10681 10686 10692 10697 10703 10710 10717 10720 10722 10727 10731 10733 10736 10737 10738 10740 10742 10745 10748 10750 10751 10753 10755 10756 10757 10758 10758 10758 10759 10759 10760 10760 10760 10759 10759
10669 10662 10654 10647 10640 10632 10624 10616 10607 10599 10590 10582 10576 10570 10564 10559 10552 10545 10540 10535 10531 10527 10525 10522 10520 10518 10516 10515 10514 10515 10518 10521 10523 10527 10533 10538 10545 10552 10559 10567 10574 10581 10590 10598 10605 10613 10622 10632 10641 10649 10657 10665 10673 10680 10687 10692 10697 10703 10711 10716 10719 10722 10726 10730 10733 10735 10735 10737 10738 10739 10742 10746 10747 10748 10750 10751 10752 10753 10754 10754 10754 10754 10756 10756 10756 10756 10756 10755
10668 10661 10653 10646 10639 10632 10624 10617 10609 10601 10592 10585 10579 10573 10568 10563 10557 10551 10545 10541 10537 10534 10531 10529 10527 10524 10523 10522 10522 10523 10525 10528 10531 10534 10539 10545 10551 10558 10565 10573 10581 10588 10596 10604 10609 10617 10627 10637 10645 10652 10659 10667 10674 10681 10687 10693 10699 10705 10710 10714 10717 10721 10725 10728 10731 10733 10733 10735 10735 10737 10741 10743 10744 10745 10747 10748 10748 10749 10751 10751 10750 10751 10752 10752 10752 10752 10752 10751
10667 10660 10652 10645 10638 10632 10625 10618 10611 10603 10595 10588 10582 10576 10571 10567 10562 10556 10551 10547 10544 10540 10538 10535 10533 10532 10530 10529 10530 10530 10532 10535 10538 10542 10547 10552 10557 10564 10570 10577 10585 10593 10601 10608 10614 10622 10631 10640 10648 10654 10661 10668 10675 10681 10688 10694 10699 10704 10708 10712 10716 10719 10723 10726 10729 10731 10733 10733 10734 10736 10739 10740 10741 10741 10743 10744 10745 10746 10747 10747 10747 10748 10748 10748 10748 10748 10747 10747
10666 10659 10652 10644 10638 10631 10625 10619 10612 10605 10597 10590 10584 10579 10574 10570 10565 10561 10557 10553 10549 10546 10545 10542 10540 10539 10538 10537 10538 10538 10539 10542 10544 10547 10552 10558 10564 10570 10577 10583 10590 10597 10603 10609 10616 10625 10633 10640 10648 10655 10662 10669 10676 10682 10688 10694 10699 10703 10706 10710 10715 10718 10721 10723 10726 10730 10731 10731 10732 10734 10736 10737 10737 10738 10739 10741 10742 10743 10744 10745 10744 10744 10744 10744 10744 10743 10743 10743
10665 10659 10652 10644 10638 10631 10625 10619 10612 10606 10599 10592 10586 10581 10578 10574 10569 10565 10562 10559 10555 10552 10550 10549 10547 10547 10545 10545 10546 10546 10547 10549 10552 10554 10558 10563 10570 10577 10584 10590 10596 10602 10607 10613 10619 10628 10637 10642 10649 10657 10665 10672 10678 10683 10689 10693 10697 10701 10705 10709 10713 10717 10720 10722 10725 10728 10729 10729 10730 10731 10733 10734 10734 10735 10736 10737 10739 10740 10741 10741 10741 10741 10741 10740 10740 10740 10739 10739
10664 10658 10652 10645 10638 10631 10625 10620 10614 10607 10601 10594 10588 10583 10581 10578 10572 10569 10566 10563 10560 10557 10555 10554 10554 10554 10553 10552 10553 10555 10556 10557 10560 10563 10566 10570 10575 10582 10589 10595 10601 10606 10612 10617 10622 10630 10638 10645 10651 10659 10665 10672 10677 10682 10687 10691 10695 10699 10703 10708 10712 10716 10719 10722 10725 10727 10727 10728 10729 10729 10730 10731 10732 10733 10734 10735 10736 10736 10737 10738 10738 10738 10737 10737 10736 10736 10735 10736
10664 10658 10652 10645 10639 10632 10626 10621 10615 10610 10604 10597 10591 10586 10583 10580 10575 10572 10570 10566 10564 10562 10560 10559 10560 10561 10560 10558 10560 10562 10563 10565 10567 10570 10575 10579 10583 10589 10596 10602 10607 10612 10616 10620 10626 10632 10640 10647 10653 10659 10664 10670 10676 10681 10686 10690 10694 10698 10702 10707 10712 10715 10718 10721 10724 10725 10726 10727 10727 10728 10728 10729 10730 10730 10731 10731 10732 10733 10733 10734 10734 10734 10734 10733 10733 10732 10732 10732
10664 10658 10652 10646 10640 10634 10627 10622 10616 10611 10605 10599 10594 10588 10584 10581 10578 10576 10574 10571 10569 10567 10565 10564 10565 10566 10565 10565 10566 10567 10569 10571 10575 10578 10582 10587 10592 10597 10603 10608 10613 10617 10620 10625 10630 10635 10642 10649 10655 10660 10665 10671 10677 10681 10686 10691 10696 10700 10704 10708 10711 10714 10716 10719 10721 10722 10723 10725 10725 10726 10727 10727 10727 10727 10728 10728 10729 10730 10730 10731 10731 10731 10730 10729 10729 10729 10729 10729
10663 10657 10652 10646 10640 10634 10628 10623 10617 10612 10607 10601 10595 10590 10586 10583 10582 10580 10578 10576 10574 10571 10570 10570 10571 10571 10571 10571 10572 10574 10575 10576 10580 10585 10589 10594 10599 10603 10607 10611 10616 10621 10624 10629 10634 10638 10643 10650 10657 10662 10667 10672 10678 10684 10689 10693 10697 10701 10704 10707 10710 10713 10715 10718 10720 10720 10721 10723 10724 10725 10726 10726 10725 10724 10725 10725 10726 10727 10727 10728 10728 10727 10727 10726 10726 10726 10725 10725
10663 10657 10652 10646 10641 10635 10629 10624 10618 10613 10609 10603 10597 10592 10589 10587 10585 10583 10581 10579 10577 10576 10575 10575 10576 10576 10577 10578 10579 10580 10582 10583 10587 10591 10595 10599 10603 10607 10611 10614 10619 10625 10629 10632 10637 10642 10647 10652 10657 10662 10667 10673 10679 10684 10688 10692 10696 10700 10703 10707 10710 10712 10715 10718 10720 10720 10720 10722 10723 10724 10725 10724 10723 10722 10722 10723 10723 10724 10725 10725 10724 10724 10723 10723 10722 10722 10721 10721
10662 10657 10651 10646 10641 10636 10631 10626 10620 10615 10611 10605 10600 10595 10592 10590 10587 10586 10585 10583 10581 10581 10581 10581 10581 10582 10582 10584 10585 10586 10589 10591 10594 10598 10601 10604 10608 10612 10616 10618 10622 10628 10633 10636 10640 10645 10650 10654 10658 10662 10667 10672 10677 10682 10686 10691 10695 10699 10702 10705 10709 10712 10714 10717 10719 10719 10720 10720 10721 10722 10723 10722 10721 10720 10720 10720 10721 10721 10722 10722 10721 10721 10721 10720 10719 10719 10718 10717
10662 10657 10651 10646 10641 10637 10632 10628 10622 10618 10613 10607 10603 10599 10596 10593 10591 10590 10589 10588 10587 10586 10587 10588 10588 10588 10589 10591 10592 10592 10595 10598 10602 10605 10607 10610 10613 10616 10619 10623 10627 10632 10636 10640 10644 10647 10651 10656 10660 10664 10668 10672 10677 10681 10686 10691 10694 10697 10700 10704 10707 10711 10713 10716 10718 10718 10718 10718 10719 10719 10719 10718 10719 10718 10717 10718 10719 10719 10719 10719 10718 10718 10718 10717 10716 10716 10715 10714
10661 10657 10651 10646 10642 10638 10633 10629 10624 10620 10615 10611 10608 10603 10600 10597 10596 10595 10593 10592 10592 10592 10594 10594 10594 10594 10594 10595 10597 10598 10600 10603 10606 10609 10612 10614 10617 10619 10623 10627 10630 10635 10639 10642 10646 10649 10653 10657 10662 10666 10670 10674 10678 10682 10686 10690 10693 10696 10699 10703 10707 10710 10713 10715 10716 10717 10717 10716 10716 10716 10716 10716 10715 10715 10715 10716 10716 10716 10716 10715 10716 10716 10716 10715 10714 10713 10712 10712
10659 10656 10651 10646 10642 10638 10634 10629 10625 10622 10619 10615 10611 10607 10604 10602 10600 10599 10597 10598 10598 10598 10598 10598 10597 10597 10598 10599 10601 10602 10605 10607 10609 10612 10616 10619 10622 10625 10628 10631 10633 10637 10641 10644 10648 10652 10656 10659 10664 10668 10672 10675 10679 10682 10685 10689 10692 10696 10699 10703 10707 10710 10712 10714 10715 10716 10715 10714 10713 10713 10713 10712 10712 10713 10713 10713 10713 10713 10712 10712 10713 10713 10713 10714 10713 10711 10711 10710
10658 10655 10651 10646 10642 10638 10635 10630 10626 10624 10622 10618 10614 10611 10608 10606 10605 10603 10602 10603 10603 10602 10601 10601 10601 10602 10604 10605 10605 10607 10609 10612 10615 10618 10621 10624 10627 10629 10631 10634 10637 10640 10643 10646 10651 10656 10659 10662 10666 10669 10673 10676 10679 10682 10685 10688 10692 10696 10699 10702 10705 10708 10711 10713 10714 10714 10712 10710 10710 10710 10710 10709 10710 10710 10710 10710 10711 10710 10710 10710 10710 10711 10711 10712 10711 10710 10709 10708
10657 10654 10651 10646 10642 10638 10635 10631 10627 10625 10623 10620 10617 10614 10612 10610 10609 10608 10607 10607 10607 10606 10605 10605 10606 10607 10609 10610 10611 10612 10615 10618 10620 10623 10626 10628 10631 10633 10635 10637 10641 10645 10647 10648 10653 10658 10662 10664 10668 10671 10674 10676 10679 10682 10684 10688 10692 10695 10698 10700 10703 10706 10709 10711 10710 10708 10706 10706 10707 10707 10707 10708 10709 10708 10707 10707 10708 10708 10708 10708 10708 10708 10709 10709 10709 10709 10708 10707
10656 10653 10650 10646 10642 10638 10635 10631 10628 10625 10624 10622 10620 10617 10616 10614 10613 10612 10611 10611 10610 10610 10610 10611 10611 10612 10613 10614 10615 10617 10619 10622 10625 10627 10629 10632 10635 10637 10640 10642 10645 10649 10651 10651 10655 10660 10664 10666 10669 10672 10675 10677 10680 10682 10685 10688 10691 10694 10696 10699 10701 10704 10705 10705 10705 10704 10704 10704 10705 10706 10706 10706 10706 10705 10704 10704 10705 10705 10706 10706 10706 10706 10706 10706 10707 10708 10707 10706
10655 10652 10649 10646 10642 10638 10635 10631 10628 10625 10624 10624 10622 10620 10619 10618 10617 10616 10615 10615 10614 10614 10615 10615 10615 10615 10617 10618 10619 10621 10624 10626 10628 10630 10632 10635 10637 10640 10642 10645 10648 10651 10654 10655 10657 10662 10666 10668 10670 10673 10676 10678 10680 10682 10684 10687 10689 10692 10694 10697 10699 10701 10701 10700 10701 10702 10702 10703 10704 10704 10704 10704 10703 10702 10702 10702 10702 10703 10704 10703 10703 10704 10704 10704 10705 10706 10706 10705
10653 10651 10648 10645 10641 10638 10634 10631 10628 10625 10624 10623 10622 10622 10621 10620 10619 10619 10619 10619 10619 10619 10618 10618 10619 10619 10620 10622 10623 10625 10627 10629 10631 10633 10635 10637 10639 10641 10644 10646 10649 10652 10655 10657 10659 10662 10667 10670 10671 10673 10675 10678 10680 10682 10684 10686 10689 10691 10693 10695 10697 10698 10699 10699 10699 10700 10700 10701 10702 10701 10701 10701 10698 10698 10700 10701 10701 10702 10701 10701 10701 10702 10703 10703 10703 10704 10704 10703
10651 10649 10646 10644 10640 10637 10634 10631 10627 10625 10623 10623 10622 10622 10622 10621 10621 10621 10622 10622 10622 10622 10621 10621 10622 10623 10623 10625 10627 10628 10630 10631 10632 10634 10637 10639 10641 10643 10645 10647 10649 10652 10654 10656 10659 10662 10666 10669 10671 10672 10674 10677 10680 10682 10684 10686 10688 10689 10690 10692 10695 10695 10696 10696 10697 10698 10698 10698 10699 10698 10698 10698 10697 10698 10699 10700 10700 10700 10699 10700 10700 10701 10702 10702 10702 10701 10701 10701
10649 10647 10645 10642 10639 10636 10633 10630 10627 10624 10623 10622 10622 10622 10621 10621 10621 10622 10623 10624 10624 10624 10624 10624 10625 10625 10626 10628 10629 10631 10632 10633 10634 10636 10639 10641 10643 10645 10646 10648 10650 10652 10654 10656 10659 10661 10664 10668 10670 10672 10675 10677 10679 10681 10682 10684 10686 10687 10688 10690 10692 10692 10692 10694 10695 10696 10695 10696 10696 10696 10696 10697 10697 10698 10698 10698 10698 10698 10698 10698 10699 10700 10700 10700 10700 10699 10699 10698
10646 10645 10642 10640 10637 10634 10631 10628 10625 10623 10622 10622 10622 10622 10622 10622 10622 10623 10624 10625 10626 10626 10626 10626 10626 10628 10629 10630 10631 10633 10634 10636 10637 10639 10641 10643 10645 10646 10648 10649 10651 10653 10655 10657 10660 10662 10664 10667 10669 10672 10675 10677 10679 10680 10681 10683 10684 10685 10686 10688 10689 10689 10690 10691 10693 10693 10693 10693 10693 10693 10694 10695 10696 10696 10696 10696 10697 10697 10697 10696 10697 10697 10697 10698 10698 10698 10697 10697
10643 10641 10640 10637 10635 10632 10629 10626 10624 10622 10621 10621 10621 10622 10622 10623 10623 10623 10624 10625 10627 10628 10628 10628 10628 10630 10631 10632 10633 10635 10636 10638 10639 10641 10643 10645 10646 10648 10649 10651 10653 10654 10656 10658 10660 10663 10665 10667 10669 10672 10674 10676 10678 10679 10681 10682 10682 10683 10684 10686 10687 10688 10688 10689 10690 10691 10692 10692 10691 10691 10692 10693 10693 10694 10695 10694 10694 10695 10695 10695 10695 10694 10694 10695 10697 10696 10697 10696
10639 10638 10636 10634 10632 10629 10626 10624 10622 10620 10620 10620 10621 10621 10622 10622 10623 10624 10625 10626 10628 10629 10629 10630 10631 10631 10632 10633 10635 10636 10638 10639 10641 10642 10644 10646 10647 10649 10650 10652 10654 10655 10657 10659 10661 10663 10665 10667 10669 10671 10673 10675 10676 10677 10678 10680 10681 10682 10683 10684 10686 10687 10687 10687 10688 10689 10690 10689 10689 10689 10690 10690 10691 10692 10693 10693 10692 10693 10694 10694 10694 10694 10692 10693 10694 10694 10695 10695
10636 10634 10632 10631 10629 10626 10623 10621 10619 10619 10618 10619 10620 10621 10622 10623 10623 10624 10626 10627 10628 10629 10630 10632 10633 10632 10633 10634 10635 10637 10639 10641 10642 10643 10645 10647 10648 10650 10651 10653 10655 10656 10658 10659 10661 10663 10665 10667 10669 10670 10671 10673 10674 10675 10676 10678 10680 10681 10682 10683 10684 10685 10685 10685 10686 10687 10687 10687 10687 10687 10687 10688 10689 10689 10691 10691 10691 10691 10692 10692 10693 10693 10692 10692 10692 10692 10693 10693
10633 10630 10628 10627 10625 10623 10620 10618 10617 10616 10616 10617 10619 10620 10621 10623 10624 10625 10626 10627 10628 10629 10631 10632 10633 10633 10634 10635 10636 10637 10639 10641 10643 10644 10645 10647 10648 10651 10652 10654 10655 10657 10658 10659 10661 10662 10664 10666 10667 10668 10670 10671 10673 10674 10675 10677 10678 10679 10680 10682 10682 10683 10683 10683 10684 10684 10684 10684 10684 10684 10685 10686 10686 10687 10689 10689 10689 10690 10690 10691 10691 10691 10690 10690 10690 10690 10690 10691
10629 10626 10624 10623 10621 10619 10617 10615 10614 10614 10614 10615 10617 10619 10620 10622 10624 10625 10625 10626 10628 10630 10631 10632 10633 10634 10635 10636 10637 10638 10640 10641 10643 10644 10646 10647 10649 10651 10652 10654 10655 10657 10658 10659 10660 10662 10663 10665 10666 10667 10669 10670 10672 10673 10674 10675 10676 10677 10678 10679 10680 10681 10682 10682 10682 10682 10682 10682 10682 10682 10683 10684 10684 10685 10687 10688 10688 10688 10688 10689 10689 10689 10689 10689 10689 10689 10688 10688
10625 10622 10619 10619 10618 10615 10613 10611 10611 10611 10612 10613 10614 10617 10620 10621 10623 10625 10626 10627 10628 10629 10631 10632 10633 10635 10636 10637 10638 10640 10641 10642 10643 10645 10647 10648 10648 10650 10651 10652 10654 10656 10657 10658 10659 10660 10661 10663 10665 10667 10668 10669 10670 10672 10673 10674 10675 10676 10676 10677 10678 10680 10681 10681 10681 10681 10681 10681 10680 10681 10682 10682 10682 10684 10685 10686 10686 10686 10687 10687 10687 10688 10688 10688 10689 10688 10687 10686
10621 10618 10615 10614 10613 10612 10609 10608 10608 10609 10609 10611 10612 10615 10617 10619 10620 10623 10625 10626 10627 10628 10630 10632 10634 10635 10637 10638 10639 10641 10642 10643 10644 10646 10647 10647 10648 10649 10650 10651 10652 10653 10655 10656 10657 10658 10660 10661 10664 10665 10666 10667 10668 10670 10671 10673 10674 10674 10674 10675 10677 10678 10679 10678 10679 10679 10680 10680 10679 10680 10681 10681 10681 10682 10683 10683 10683 10684 10685 10685 10685 10685 10685 10686 10687 10686 10685 10684
10616 10613 10611 10609 10608 10607 10606 10604 10605 10606 10607 10609 10611 10613 10615 10617 10618 10620 10622 10624 10626 10627 10629 10631 10633 10635 10637 10638 10639 10641 10642 10643 10645 10646 10646 10647 10647 10648 10649 10650 10651 10651 10652 10653 10654 10656 10658 10660 10662 10663 10664 10666 10667 10668 10669 10670 10671 10671 10671 10673 10674 10675 10676 10676 10677 10677 10677 10677 10677 10677 10678 10679 10679 10680 10680 10680 10680 10681 10682 10682 10682 10683 10683 10683 10683 10683 10682 10682
10611 10608 10606 10605 10604 10603 10602 10601 10602 10603 10604 10607 10610 10612 10613 10614 10616 10617 10619 10621 10624 10626 10627 10630 10632 10634 10636 10637 10639 10641 10642 10643 10644 10645 10646 10646 10647 10648 10649 10649 10649 10650 10651 10651 10652 10654 10657 10658 10659 10661 10663 10664 10665 10666 10666 10667 10667 10668 10669 10670 10672 10672 10674 10674 10674 10674 10675 10674 10674 10675 10676 10677 10677 10677 10677 10678 10678 10678 10679 10679 10680 10681 10681 10680 10681 10680 10678 10678
10607 10604 10602 10600 10599 10599 10598 10598 10599 10600 10603 10606 10608 10610 10612 10613 10614 10615 10617 10619 10622 10624 10626 10629 10631 10633 10635 10637 10639 10641 10642 10642 10643 10644 10645 10646 10647 10647 10647 10648 10648 10648 10649 10650 10651 10653 10654 10656 10657 10659 10661 10662 10662 10663 10663 10664 10665 10666 10667 10668 10670 10670 10671 10671 10671 10671 10672 10672 10672 10672 10673 10674 10674 10674 10675 10676 10675 10675 10676 10676 10677 10678 10678 10678 10679 10678 10675 10673
10602 10600 10598 10596 10594 10594 10595 10595 10596 10598 10600 10603 10605 10607 10610 10612 10613 10614 10616 10619 10622 10623 10625 10627 10629 10631 10633 10634 10636 10639 10640 10640 10641 10643 10644 10646 10646 10645 10645 10646 10646 10646 10647 10648 10650 10651 10652 10653 10655 10656 10658 10659 10659 10660 10661 10662 10663 10664 10665 10666 10667 10668 10669 10668 10668 10669 10669 10669 10669 10670 10671 10671 10671 10672 10672 10673 10673 10672 10673 10674 10674 10675 10676 10675 10675 10674 10672 10670
10597 10596 10594 10593 10591 10590 10592 10592 10593 10595 10597 10600 10603 10605 10608 10610 10613 10614 10616 10618 10620 10621 10623 10625 10627 10629 10630 10631 10633 10635 10636 10637 10638 10640 10641 10642 10642 10642 10643 10644 10645 10645 10646 10647 10649 10650 10650 10651 10653 10654 10655 10656 10657 10658 10659 10660 10661 10662 10663 10664 10665 10666 10666 10666 10666 10666 10666 10666 10667 10667 10668 10668 10669 10670 10670 10670 10670 10671 10670 10671 10671 10672 10672 10672 10671 10670 10670 10669
10593 10591 10589 10589 10588 10588 10588 10589 10591 10592 10595 10598 10602 10604 10606 10608 10611 10614 10616 10617 10618 10620 10621 10623 10625 10627 10629 10630 10631 10632 10633 10634 10635 10636 10637 10638 10640 10640 10641 10643 10644 10645 10645 10646 10647 10648 10649 10651 10652 10652 10653 10654 10655 10656 10657 10658 10659 10660 10661 10662 10662 10663 10663 10664 10664 10664 10663 10663 10664 10665 10665 10666 10666 10667 10667 10667 10667 10667 10667 10668 10668 10668 10668 10668 10667 10666 10666 10665
10589 10586 10584 10584 10584 10585 10584 10585 10587 10589 10592 10596 10600 10602 10604 10606 10609 10612 10614 10616 10616 10617 10619 10621 10623 10626 10627 10627 10627 10628 10630 10632 10633 10634 10635 10637 10638 10638 10639 10641 10644 10644 10644 10644 10645 10646 10647 10649 10649 10650 10650 10651 10652 10653 10654 10656 10657 10658 10659 10659 10659 10659 10660 10661 10661 10661 10660 10660 10661 10662 10662 10663 10663 10663 10664 10664 10664 10663 10664 10664 10665 10665 10664 10664 10664 10663 10662 10662
10584 10582 10580 10579 10579 10580 10581 10583 10585 10586 10588 10592 10596 10600 10602 10604 10607 10609 10612 10613 10613 10615 10617 10619 10620 10622 10623 10622 10623 10625 10627 10630 10631 10632 10633 10634 10635 10636 10638 10639 10641 10642 10643 10643 10643 10644 10645 10646 10646 10647 10647 10648 10649 10650 10652 10653 10654 10655 10655 10655 10655 10656 10657 10657 10657 10658 10658 10658 10659 10659 10659 10659 10659 10659 10661 10661 10661 10660 10660 10661 10661 10662 10661 10661 10661 10660 10659 10659
10579 10578 10577 10576 10575 10576 10578 10580 10581 10583 10585 10589 10593 10597 10600 10602 10605 10607 10609 10610 10612 10614 10616 10617 10618 10619 10620 10620 10621 10623 10625 10628 10629 10630 10631 10632 10633 10634 10636 10637 10639 10640 10641 10641 10641 10642 10643 10644 10644 10644 10644 10645 10646 10648 10649 10650 10651 10651 10651 10652 10653 10654 10654 10654 10655 10655 10656 10655 10655 10655 10655 10655 10655 10656 10657 10657 10657 10657 10656 10657 10657 10658 10658 10658 10657 10658 10658 10657
10574 10573 10572 10571 10571 10572 10574 10575 10576 10579 10583 10587 10590 10593 10596 10599 10602 10604 10606 10608 10610 10612 10614 10615 10616 10617 10618 10619 10620 10622 10623 10625 10627 10628 10629 10631 10632 10633 10634 10636 10637 10639 10640 10640 10640 10640 10641 10641 10641 10641 10641 10642 10644 10646 10647 10647 10648 10649 10649 10650 10650 10650 10650 10651 10652 10653 10652 10651 10651 10652 10652 10652 10652 10652 10652 10653 10653 10652 10652 10652 10653 10653 10654 10654 10653 10653 10654 10653